Time,TemperatureF,DewpointF,PressureIn,WindDirection,WindDirectionDegrees,WindSpeedMPH,WindSpeedGustMPH,Humidity,HourlyPrecipIn,Conditions,Clouds,dailyrainin,SoftwareType,DateUTC
2013-08-16 00:23:00,58.0,50.0,30.13,WNW,292,0.0,0.0,74,0.00,,,0.00,,2013-08-16 04:23:00,
2013-08-16 00:54:00,57.0,49.0,30.13,WSW,248,1.0,2.0,75,0.00,,,0.00,,2013-08-16 04:54:00,
2013-08-16 01:12:00,57.0,50.0,30.13,WSW,248,2.0,2.0,76,0.00,,,0.00,,2013-08-16 05:12:00,
2013-08-16 01:22:00,56.0,49.0,30.13,WSW,248,0.0,2.0,76,0.00,,,0.00,,2013-08-16 05:22:00,
2013-08-16 03:00:00,55.0,49.0,30.11,West,270,0.0,0.0,79,0.00,,,0.00,,2013-08-16 07:00:00,
2013-08-16 03:11:00,55.0,49.0,30.12,NW,315,0.0,0.0,79,0.00,,,0.00,,2013-08-16 07:11:00,
2013-08-16 03:21:00,54.0,48.0,30.11,WSW,248,0.0,0.0,80,0.00,,,0.00,,2013-08-16 07:21:00,
2013-08-16 03:52:00,54.0,48.0,30.12,WSW,248,1.0,1.0,81,0.00,,,0.00,,2013-08-16 07:52:00,
2013-08-16 04:11:00,54.0,48.0,30.12,WSW,248,1.0,2.0,81,0.00,,,0.00,,2013-08-16 08:11:00,
2013-08-16 04:21:00,54.0,49.0,30.12,West,270,0.0,1.0,82,0.00,,,0.00,,2013-08-16 08:21:00,
2013-08-16 04:52:00,53.0,48.0,30.12,WSW,248,0.0,1.0,82,0.00,,,0.00,,2013-08-16 08:52:00,
2013-08-16 05:11:00,53.0,48.0,30.12,WSW,248,1.0,1.0,82,0.00,,,0.00,,2013-08-16 09:11:00,
2013-08-16 05:21:00,53.0,48.0,30.12,WNW,292,0.0,1.0,83,0.00,,,0.00,,2013-08-16 09:21:00,
2013-08-16 05:53:00,52.0,47.0,30.12,WSW,248,1.0,1.0,83,0.00,,,0.00,,2013-08-16 09:53:00,
2013-08-16 06:23:00,52.0,47.0,30.14,WSW,248,1.0,2.0,83,0.00,,,0.00,,2013-08-16 10:23:00,
2013-08-16 06:53:00,52.0,47.0,30.13,NNW,338,0.0,0.0,83,0.00,,,0.00,,2013-08-16 10:53:00,
2013-08-16 07:21:00,52.0,47.0,30.14,NE,45,0.0,0.0,84,0.00,,,0.00,,2013-08-16 11:21:00,
2013-08-16 07:52:00,53.0,49.0,30.15,SE,135,0.0,0.0,85,0.00,,,0.00,,2013-08-16 11:52:00,
2013-08-16 08:12:00,53.0,49.0,30.15,ENE,68,0.0,1.0,85,0.00,,,0.00,,2013-08-16 12:12:00,
2013-08-16 08:21:00,54.0,50.0,30.16,SE,135,0.0,1.0,86,0.00,,,0.00,,2013-08-16 12:21:00,
2013-08-16 08:52:00,55.0,50.0,30.15,NNW,338,0.0,1.0,84,0.00,,,0.00,,2013-08-16 12:52:00,
2013-08-16 09:11:00,56.0,51.0,30.16,NE,45,0.0,0.0,84,0.00,,,0.00,,2013-08-16 13:11:00,
2013-08-16 09:22:00,57.0,52.0,30.16,East,90,0.0,3.0,83,0.00,,,0.00,,2013-08-16 13:22:00,
2013-08-16 09:53:00,59.0,53.0,30.17,East,90,2.0,3.0,81,0.00,,,0.00,,2013-08-16 13:53:00,
2013-08-16 10:22:00,60.0,53.0,30.16,NNE,22,0.0,2.0,79,0.00,,,0.00,,2013-08-16 14:22:00,
2013-08-16 10:42:00,60.0,53.0,30.16,North,0,0.0,1.0,79,0.00,,,0.00,,2013-08-16 14:42:00,
2013-08-16 10:52:00,62.0,54.0,30.17,West,270,0.0,2.0,76,0.00,,,0.00,,2013-08-16 14:52:00,
2013-08-16 11:22:00,64.0,56.0,30.17,North,0,0.0,1.0,74,0.00,,,0.00,,2013-08-16 15:22:00,
2013-08-16 11:56:00,66.0,56.0,30.17,WSW,248,1.0,3.0,70,0.00,,,0.00,,2013-08-16 15:56:00,
2013-08-16 12:23:00,68.0,57.0,30.16,NNE,22,0.0,5.0,67,0.00,,,0.00,,2013-08-16 16:23:00,
2013-08-16 12:57:00,70.0,57.0,30.15,West,270,1.0,2.0,63,0.00,,,0.00,,2013-08-16 16:57:00,
2013-08-16 13:13:00,71.0,57.0,30.16,West,270,1.0,2.0,61,0.00,,,0.00,,2013-08-16 17:13:00,
2013-08-16 13:28:00,72.0,55.0,30.16,WSW,248,2.0,7.0,55,0.00,,,0.00,,2013-08-16 17:28:00,
2013-08-16 14:00:00,72.0,56.0,30.16,SW,225,2.0,6.0,57,0.00,,,0.00,,2013-08-16 18:00:00,
2013-08-16 14:28:00,75.0,55.0,30.16,NNE,22,3.0,8.0,49,0.00,,,0.00,,2013-08-16 18:28:00,
2013-08-16 14:50:00,-999.0,-99.9,30.17,WSW,248,2.0,3.0,48,0.00,,,0.00,,2013-08-16 18:50:00,
2013-08-16 15:14:00,78.0,55.0,30.17,SW,225,2.0,5.0,45,0.00,,,0.00,,2013-08-16 19:14:00,
2013-08-16 15:25:00,79.0,54.0,30.18,WSW,248,2.0,6.0,42,0.00,,,0.00,,2013-08-16 19:25:00,
2013-08-16 15:55:00,80.0,54.0,30.19,WSW,248,3.0,6.0,41,0.00,,,0.00,,2013-08-16 19:55:00,
2013-08-16 16:11:00,80.0,54.0,30.21,WSW,248,2.0,6.0,41,0.00,,,0.00,,2013-08-16 20:11:00,
2013-08-16 16:23:00,79.0,54.0,30.15,WSW,248,0.0,6.0,42,0.00,,,0.00,,2013-08-16 20:23:00,
2013-08-16 16:52:00,81.0,56.0,30.21,North,0,1.0,3.0,42,0.00,,,0.00,,2013-08-16 20:52:00,
2013-08-16 17:11:00,82.0,55.0,30.22,West,270,2.0,6.0,39,0.00,,,0.00,,2013-08-16 21:11:00,
2013-08-16 17:25:00,82.0,54.0,30.22,SW,225,2.0,5.0,38,0.00,,,0.00,,2013-08-16 21:25:00,
2013-08-16 17:40:00,-999.0,-99.9,30.22,SW,225,2.0,3.0,-999,0.00,,,0.00,,2013-08-16 21:40:00,
2013-08-16 17:54:00,80.0,53.0,30.21,South,180,2.0,5.0,39,0.00,,,0.00,,2013-08-16 21:54:00,
2013-08-16 18:24:00,77.0,52.0,30.22,West,270,2.0,5.0,42,0.00,,,0.00,,2013-08-16 22:24:00,
2013-08-16 18:52:00,75.0,52.0,30.16,WSW,248,1.0,2.0,44,0.00,,,0.00,,2013-08-16 22:52:00,
2013-08-16 19:12:00,74.0,52.0,30.14,WSW,248,0.0,1.0,46,0.00,,,0.00,,2013-08-16 23:12:00,
2013-08-16 19:23:00,73.0,54.0,30.14,WSW,248,0.0,1.0,51,0.00,,,0.00,,2013-08-16 23:23:00,
2013-08-16 19:52:00,71.0,54.0,30.14,WSW,248,0.0,0.0,56,0.00,,,0.00,,2013-08-16 23:52:00,
2013-08-16 20:21:00,69.0,55.0,30.15,WSW,248,0.0,0.0,62,0.00,,,0.00,,2013-08-17 00:21:00,
2013-08-16 20:42:00,68.0,55.0,30.15,WSW,248,0.0,0.0,64,0.00,,,0.00,,2013-08-17 00:42:00,
2013-08-16 20:52:00,67.0,54.0,30.15,WSW,248,0.0,0.0,64,0.00,,,0.00,,2013-08-17 00:52:00,
2013-08-16 21:11:00,66.0,54.0,30.15,WSW,248,0.0,0.0,66,0.00,,,0.00,,2013-08-17 01:11:00,
2013-08-16 21:21:00,65.0,53.0,30.16,NW,315,0.0,0.0,66,0.00,,,0.00,,2013-08-17 01:21:00,
2013-08-16 21:42:00,65.0,54.0,30.16,West,270,0.0,0.0,67,0.00,,,0.00,,2013-08-17 01:42:00,
2013-08-16 21:52:00,64.0,53.0,30.17,WSW,248,0.0,0.0,68,0.00,,,0.00,,2013-08-17 01:52:00,
2013-08-16 22:21:00,63.0,53.0,30.17,West,269,0.0,0.0,70,0.00,,,0.00,,2013-08-17 02:21:00,
2013-08-16 22:42:00,62.0,52.0,30.17,WSW,248,0.0,0.0,71,0.00,,,0.00,,2013-08-17 02:42:00,
2013-08-16 22:52:00,62.0,52.0,30.17,NNW,339,0.0,0.0,71,0.00,,,0.00,,2013-08-17 02:52:00,
2013-08-16 23:22:00,61.0,52.0,30.17,WSW,250,0.0,0.0,72,0.00,,,0.00,,2013-08-17 03:22:00,
2013-08-16 23:53:00,60.0,51.0,30.18,WSW,248,0.0,0.0,73,0.00,,,0.00,,2013-08-17 03:53:00,